RYR77L EDNY-EPGD

Flight info

Callsign RYR77L
Flight time N/A
Altitude 39000
Route BEMKI1E BEMKI T103 BETOS M726 MAH L132 RUDNO T203 TIVDA DCT GOLOP DCT TOMTI P733 IRLUN
Aircraft B736/M-SDE2E3FGHIRWXY/LB1

Departure

Time 2026-04-27 20:29
Airport Bodensee Airport Friedrichshafen (EDNY)

Arrival

Time N/A
Airport Gdańsk Lech Wałęsa Airport (EPGD)
Time Latitude Longitude Altitude Speed Heading
2026-04-27 19:50 47.67332 9.52307 1375 ft 0 kts 174°
2026-04-27 20:19 47.67331 9.52306 1375 ft 0 kts 181°
2026-04-27 20:19 47.67330 9.52302 1375 ft 0 kts 222°
2026-04-27 20:20 47.67330 9.52298 1375 ft 0 kts 258°
2026-04-27 20:20 47.67333 9.52292 1375 ft 1 kts 300°
2026-04-27 20:20 47.67343 9.52286 1373 ft 2 kts 334°
2026-04-27 20:20 47.67350 9.52280 1373 ft 2 kts 332°
2026-04-27 20:21 47.67370 9.52256 1373 ft 5 kts 299°
2026-04-27 20:21 47.67356 9.52205 1373 ft 7 kts 236°
2026-04-27 20:21 47.67323 9.52133 1374 ft 10 kts 236°
2026-04-27 20:21 47.67286 9.52035 1373 ft 12 kts 244°
2026-04-27 20:22 47.67246 9.51929 1372 ft 11 kts 239°
2026-04-27 20:22 47.67208 9.51828 1374 ft 12 kts 242°
2026-04-27 20:22 47.67166 9.51717 1375 ft 12 kts 240°
2026-04-27 20:22 47.67125 9.51610 1375 ft 12 kts 240°
2026-04-27 20:23 47.67084 9.51505 1373 ft 12 kts 242°
2026-04-27 20:23 47.67046 9.51401 1372 ft 11 kts 240°
2026-04-27 20:23 47.67005 9.51297 1375 ft 12 kts 239°
2026-04-27 20:23 47.66959 9.51187 1374 ft 13 kts 237°
2026-04-27 20:24 47.66913 9.51073 1373 ft 13 kts 239°
2026-04-27 20:24 47.66870 9.50955 1373 ft 13 kts 242°
2026-04-27 20:24 47.66826 9.50836 1374 ft 14 kts 239°
2026-04-27 20:24 47.66757 9.50748 1375 ft 13 kts 212°
2026-04-27 20:25 47.66682 9.50677 1373 ft 13 kts 222°
2026-04-27 20:25 47.66632 9.50570 1374 ft 12 kts 240°
2026-04-27 20:25 47.66590 9.50460 1375 ft 12 kts 240°
2026-04-27 20:25 47.66549 9.50353 1374 ft 12 kts 240°
2026-04-27 20:26 47.66509 9.50249 1375 ft 11 kts 240°
2026-04-27 20:26 47.66472 9.50152 1375 ft 10 kts 244°
2026-04-27 20:26 47.66472 9.50051 1375 ft 10 kts 287°
2026-04-27 20:26 47.66506 9.49967 1374 ft 10 kts 304°
2026-04-27 20:27 47.66543 9.49886 1375 ft 9 kts 304°
2026-04-27 20:27 47.66571 9.49840 1376 ft 4 kts 323°
2026-04-27 20:27 47.66593 9.49823 1374 ft 3 kts 337°
2026-04-27 20:27 47.66615 9.49832 1374 ft 3 kts 34°
2026-04-27 20:28 47.66634 9.49868 1375 ft 13 kts 57°
2026-04-27 20:28 47.66808 9.50329 1375 ft 90 kts 61°
2026-04-27 20:28 47.67255 9.51414 1412 ft 150 kts 57°
2026-04-27 20:28 47.67617 9.52302 1828 ft 146 kts 58°
2026-04-27 20:29 47.68260 9.54002 2967 ft 140 kts 63°
2026-04-27 20:29 47.68730 9.55347 3490 ft 162 kts 62°
2026-04-27 20:29 47.69348 9.56952 3799 ft 196 kts 60°
2026-04-27 20:29 47.70059 9.58769 4320 ft 210 kts 60°
2026-04-27 20:30 47.70792 9.60653 5076 ft 214 kts 60°
2026-04-27 20:30 47.71359 9.62714 5871 ft 223 kts 81°
2026-04-27 20:30 47.71484 9.65099 6509 ft 239 kts 86°
2026-04-27 20:30 47.71583 9.67612 7291 ft 247 kts 86°
2026-04-27 20:31 47.71693 9.70177 8146 ft 252 kts 86°
2026-04-27 20:31 47.71812 9.72807 8985 ft 258 kts 86°
2026-04-27 20:31 47.71935 9.75475 9923 ft 260 kts 86°
2026-04-27 20:31 47.72062 9.78181 10728 ft 265 kts 86°
2026-04-27 20:32 47.72099 9.80933 11536 ft 270 kts 100°
2026-04-27 20:32 47.71449 9.83559 12068 ft 287 kts 120°
2026-04-27 20:32 47.70364 9.86220 12303 ft 316 kts 123°
2026-04-27 20:32 47.69154 9.89110 12564 ft 342 kts 122°
2026-04-27 20:33 47.67891 9.92175 13230 ft 353 kts 122°
2026-04-27 20:33 47.66618 9.95326 14075 ft 359 kts 120°
2026-04-27 20:33 47.65501 9.98660 14877 ft 363 kts 115°
2026-04-27 20:33 47.64486 10.02124 15682 ft 369 kts 114°
2026-04-27 20:34 47.63476 10.05648 16489 ft 374 kts 114°
2026-04-27 20:34 47.62433 10.09219 17288 ft 380 kts 114°
2026-04-27 20:34 47.61352 10.12827 18105 ft 385 kts 115°
2026-04-27 20:34 47.60621 10.15236 18621 ft 389 kts 115°
2026-04-27 20:35 47.60154 10.16768 18909 ft 391 kts 115°
2026-04-27 20:35 47.59023 10.20466 19603 ft 397 kts 115°
2026-04-27 20:35 47.57869 10.24211 20291 ft 402 kts 115°
2026-04-27 20:35 47.56702 10.27994 20984 ft 407 kts 115°
2026-04-27 20:36 47.55768 10.31981 21634 ft 414 kts 99°
2026-04-27 20:36 47.55534 10.36250 22360 ft 418 kts 91°
2026-04-27 20:36 47.55419 10.40575 23042 ft 424 kts 91°
2026-04-27 20:36 47.55274 10.44896 23675 ft 430 kts 92°
2026-04-27 20:37 47.55096 10.49338 24258 ft 434 kts 91°
2026-04-27 20:37 47.55273 10.53789 24878 ft 435 kts 78°
2026-04-27 20:37 47.56029 10.58128 25527 ft 435 kts 68°
2026-04-27 20:37 47.57316 10.62171 26125 ft 435 kts 57°
2026-04-27 20:38 47.58881 10.66012 26730 ft 438 kts 55°
2026-04-27 20:38 47.60496 10.69864 27288 ft 442 kts 55°
2026-04-27 20:38 47.62113 10.73755 27847 ft 446 kts 56°
2026-04-27 20:38 47.63720 10.77705 28401 ft 450 kts 56°
2026-04-27 20:39 47.65304 10.81657 28935 ft 453 kts 56°
2026-04-27 20:39 47.66924 10.85681 29457 ft 456 kts 54°
2026-04-27 20:39 47.68826 10.89450 29956 ft 456 kts 45°
2026-04-27 20:39 47.71092 10.92737 30417 ft 455 kts 35°
2026-04-27 20:40 47.73573 10.95652 30856 ft 456 kts 33°
2026-04-27 20:40 47.76103 10.98537 31278 ft 459 kts 33°
2026-04-27 20:40 47.78635 11.01442 31669 ft 462 kts 33°
2026-04-27 20:40 47.81171 11.04402 32040 ft 465 kts 33°
2026-04-27 20:41 47.83676 11.07365 32429 ft 467 kts 34°
2026-04-27 20:41 47.86207 11.10377 32952 ft 465 kts 33°
2026-04-27 20:41 47.88724 11.13380 33540 ft 462 kts 33°
2026-04-27 20:41 47.91222 11.16360 34064 ft 460 kts 33°
2026-04-27 20:42 47.93720 11.19338 34469 ft 460 kts 33°
2026-04-27 20:42 47.96220 11.22321 34818 ft 460 kts 33°
2026-04-27 20:42 47.98717 11.25306 35191 ft 460 kts 33°
2026-04-27 20:42 48.01207 11.28286 35582 ft 458 kts 33°
2026-04-27 20:43 48.03707 11.31211 35952 ft 454 kts 28°
2026-04-27 20:43 48.06451 11.33277 36237 ft 442 kts 12°
2026-04-27 20:43 48.09412 11.34241 36588 ft 431 kts 359°
2026-04-27 20:43 48.12369 11.34147 36911 ft 421 kts 347°
2026-04-27 20:44 48.15259 11.33490 37221 ft 420 kts 346°
2026-04-27 20:44 48.18153 11.32825 37487 ft 422 kts 347°
2026-04-27 20:44 48.21063 11.32213 37789 ft 422 kts 347°
2026-04-27 20:44 48.24012 11.32086 38048 ft 433 kts
2026-04-27 20:45 48.26809 11.33218 38312 ft 443 kts 18°
2026-04-27 20:45 48.29527 11.35629 38616 ft 454 kts 36°
2026-04-27 20:45 48.31826 11.38796 38929 ft 455 kts 39°
2026-04-27 20:45 48.34087 11.42140 39115 ft 457 kts 40°
2026-04-27 20:46 48.38598 11.48899 39153 ft 458 kts 40°
2026-04-27 20:46 48.43146 11.55581 39159 ft 457 kts 39°
2026-04-27 20:47 48.47716 11.62231 39160 ft 456 kts 39°
2026-04-27 20:47 48.52280 11.68887 39157 ft 456 kts 39°
2026-04-27 20:48 48.56067 11.74422 39162 ft 456 kts 39°
2026-04-27 20:48 48.61374 11.82150 39158 ft 456 kts 39°
2026-04-27 20:49 48.65943 11.88820 39156 ft 456 kts 39°
2026-04-27 20:49 48.70498 11.95493 39155 ft 456 kts 39°
2026-04-27 20:50 48.75055 12.02189 39163 ft 456 kts 39°
2026-04-27 20:50 48.79571 12.08842 39163 ft 456 kts 39°
2026-04-27 20:51 48.84124 12.15567 39162 ft 457 kts 39°
2026-04-27 20:51 48.88817 12.21980 39155 ft 451 kts 30°
2026-04-27 20:52 48.94279 12.26401 39167 ft 442 kts 19°
2026-04-27 20:52 48.99862 12.30207 39165 ft 443 kts 19°
2026-04-27 20:53 49.05474 12.34092 39162 ft 444 kts 19°
2026-04-27 20:53 49.11083 12.38049 39160 ft 445 kts 19°
2026-04-27 20:54 49.19506 12.44037 39156 ft 445 kts 20°
2026-04-27 20:55 49.25082 12.48011 39159 ft 446 kts 20°
2026-04-27 20:55 49.30708 12.52028 39159 ft 446 kts 20°
2026-04-27 20:56 49.36116 12.56782 39159 ft 454 kts 32°
2026-04-27 20:56 49.41102 12.62766 39169 ft 455 kts 33°
2026-04-27 20:57 49.45904 12.69035 39170 ft 459 kts 40°
2026-04-27 20:57 49.50403 12.76026 39170 ft 460 kts 41°
2026-04-27 20:58 49.54868 12.83070 39177 ft 460 kts 41°
2026-04-27 20:58 49.59349 12.90094 39183 ft 460 kts 40°
2026-04-27 20:59 49.63846 12.97116 39183 ft 460 kts 40°
2026-04-27 20:59 49.68307 13.04089 39185 ft 459 kts 40°
2026-04-27 21:00 49.72791 13.11116 39186 ft 459 kts 40°
2026-04-27 21:00 49.77270 13.18157 39188 ft 459 kts 40°
2026-04-27 21:01 49.81737 13.25200 39184 ft 459 kts 41°
2026-04-27 21:01 49.86176 13.32219 39194 ft 459 kts 41°
2026-04-27 21:02 49.90634 13.39288 39192 ft 458 kts 41°
2026-04-27 21:02 49.95088 13.46370 39203 ft 459 kts 41°
2026-04-27 21:03 49.99542 13.53472 39211 ft 458 kts 41°
2026-04-27 21:03 50.03982 13.60573 39210 ft 458 kts 41°
2026-04-27 21:04 50.08391 13.67643 39221 ft 458 kts 41°
2026-04-27 21:04 50.12831 13.74782 39210 ft 458 kts 41°
2026-04-27 21:05 50.17262 13.81929 39213 ft 458 kts 41°
2026-04-27 21:05 50.21692 13.89093 39211 ft 458 kts 41°
2026-04-27 21:06 50.26111 13.96261 39214 ft 458 kts 41°
2026-04-27 21:06 50.30498 14.03397 39216 ft 458 kts 41°
2026-04-27 21:07 50.34914 14.10600 39213 ft 458 kts 41°
2026-04-27 21:07 50.39316 14.17803 39213 ft 458 kts 41°
2026-04-27 21:08 50.43717 14.25024 39202 ft 458 kts 41°
2026-04-27 21:08 50.48110 14.32252 39203 ft 457 kts 41°
2026-04-27 21:09 50.52462 14.39433 39201 ft 457 kts 41°
2026-04-27 21:09 50.56846 14.46686 39202 ft 457 kts 41°
2026-04-27 21:10 50.60982 14.54302 39217 ft 460 kts 49°
2026-04-27 21:10 50.64734 14.62492 39202 ft 461 kts 50°
2026-04-27 21:11 50.68431 14.70654 39203 ft 461 kts 50°
2026-04-27 21:11 50.72189 14.78835 39210 ft 460 kts 49°
2026-04-27 21:12 50.75953 14.86987 39212 ft 459 kts 49°
2026-04-27 21:12 50.79713 14.95149 39216 ft 459 kts 50°
2026-04-27 21:13 50.83435 15.03260 39221 ft 459 kts 49°
2026-04-27 21:13 50.87179 15.11449 39213 ft 459 kts 49°
2026-04-27 21:14 50.90909 15.19631 39221 ft 459 kts 49°